Location: *
(2.5500°S, 65.9667°W)
Time: 19:12:10
(UTC+00:00)

DELTA-4 R/B - Visible Passes

Search period start: 04 December 2023 00:00
Search period end: 14 December 2023 00:00
Orbit: 477 x 34460 km, 14.1° (Epoch: 04 December)

Date Brightness Start Highest point End Pass type
(mag) Time Alt. Az. Time Alt. Az. Time Alt. Az.
04 Dec 7.4 01:12:51 10° WSW 01:30:41 88° NNW 10:47:58 10° E visible
05 Dec 10.1 01:58:57 10° ENE 04:59:34 24° ENE 06:25:06 10° ENE visible
06 Dec 7.3 04:21:36 10° W 06:02:00 62° NW 13:53:18 10° E visible
07 Dec 6.8 00:26:36 10° WSW 00:39:48 88° SSE 10:00:08 10° E visible
08 Dec 10.3 02:48:19 10° ENE 04:14:15 14° ENE 05:11:05 10° ENE visible
08 Dec 9.6 08:40:04 13° WNW 09:16:00 15° WNW 10:43:47 10° WNW visible
09 Dec 7.8 03:33:06 10° W 05:04:48 70° NW 13:07:08 10° E visible
09 Dec 6.4 23:40:27 10° WSW 23:50:31 83° SSE 09:11:26 10° E visible
11 Dec 9.3 07:06:29 10° W 08:30:09 24° WNW 11:31:38 10° WNW visible
12 Dec 8.1 02:45:15 10° W 03:44:58 74° NNW 12:20:41 10° E visible
12 Dec 5.9 22:54:22 10° WSW 23:02:13 75° SSE 08:21:30 10° E visible
